Tracking 33747 objects as of 12-Apr-2026
HD Live streaming from Space Station
objects crossing your sky now

STARLINK-36325

Track STARLINK-36325 now!
10-day predictions
STARLINK-36325 is classified as:


NORAD ID: 67861
Int'l Code: 2026-034M
Perigee: 481.4 km
Apogee: 483.3 km
Inclination: 53.2 °
Period: 94.1 minutes
Semi major axis: 6853 km
RCS: Unknown
Launch date: February 20, 2026
Source: United States (US)
Launch site: AIR FORCE EASTERN TEST RANGE (AFETR)
Your satellite tracking list
Your tracking list is empty




NASA's NSSDC Master Catalog

Two Line Element Set (TLE):
1 67861U 26034M   26101.87947389  .00014108  00000-0  48747-3 0  9995
2 67861  53.1607  50.3372 0001374  98.5379 261.5777 15.30205173  9111
Source of the keplerian elements: AFSPC